GW3504 Weather Reports


time (UTC)temp
F
wind
direction
speed
knots
gust
knots
rain 1hr
in
rain 24hr
in
rain mn
in
humidity
%
barometer
mb
20240418162527 50 13 7.8 16.5 0.02 1.10 0.62 57 1016.0
20240418162025 50 19 6.1 11.3 0.01 1.09 0.61 57 1015.9
20240418161526 51 285 5.2 11.3 0.02 1.09 0.61 56 1015.8
20240418161021 52 300 4.3 13.9 0.02 1.09 0.61 57 1015.7
20240418160523 52 311 7.0 13.9 0.02 1.09 0.61 57 1015.4
20240418160026 52 12 3.5 16.5 0.03 1.09 0.61 58 1015.2
20240418155521 52 304 7.0 16.5 0.04 1.09 0.61 57 1015.2
20240418155024 52 300 6.1 15.6 0.04 1.09 0.61 57 1015.1
20240418154528 53 51 3.5 10.4 0.04 1.09 0.61 57 1015.1
20240418154021 53 313 4.3 13.0 0.03 1.08 0.60 57 1015.2
20240418153520 53 41 5.2 13.0 0.04 1.08 0.60 57 1015.1
20240418153033 53 283 4.3 10.4 0.04 1.08 0.60 57 1015.1
20240418152523 53 27 4.3 10.4 0.04 1.08 0.60 57 1014.9
20240418152025 53 32 4.3 12.2 0.04 1.08 0.60 56 1014.9
20240418151526 53 358 5.2 12.2 0.03 1.07 0.58 56 1015.0
20240418151024 53 34 5.2 12.2 0.03 1.07 0.58 56 1014.8
20240418150522 53 18 5.2 12.2 0.03 1.07 0.58 56 1014.6
20240418150028 53 345 5.2 16.5 0.02 1.05 0.58 55 1014.5
20240418145521 53 32 4.3 16.5 0.01 1.04 0.57 55 1014.3
20240418145024 53 14 7.0 14.8 0.01 1.04 0.57 55 1014.1
20240418144525 53 28 6.1 14.8 0.01 1.04 0.57 54 1014.1
20240418144021 54 347 7.8 15.6 0.00 1.04 0.56 54 1013.9
20240418143523 54 41 5.2 15.6 0.00 1.04 0.56 54 1013.8
20240418143028 54 9 6.1 13.0 0.00 1.04 0.56 54 1013.9
20240418142523 54 73 5.2 18.2 0.00 1.04 0.56 54 1013.8
20240418142023 54 5 7.8 18.2 0.00 1.04 0.56 54 1013.5
20240418141531 54 349 4.3 10.4 0.00 1.04 0.56 54 1013.8
20240418141023 55 316 5.2 10.4 0.00 1.04 0.56 54 1013.7
20240418140524 55 27 6.1 12.2 0.00 1.04 0.56 54 1013.4
20240418140027 55 77 4.3 12.2 0.00 1.04 0.56 54 1013.4
20240418135524 55 338 5.2 13.0 0.00 1.04 0.56 54 1013.4
20240418135021 55 340 7.0 13.0 0.00 1.04 0.56 54 1013.3
20240418134526 55 63 3.5 12.2 0.00 1.04 0.56 54 1013.2
20240418134025 55 30 6.1 12.2 0.00 1.04 0.56 54 1013.2
20240418133521 55 11 4.3 10.4 0.00 1.04 0.56 54 1013.0
20240418133026 55 2 6.1 10.4 0.00 1.04 0.56 54 1013.0
20240418132524 55 348 3.5 12.2 0.00 1.04 0.56 54 1013.0
20240418132021 55 302 4.3 12.2 0.00 1.04 0.56 54 1012.8
20240418131536 55 1 3.5 8.7 0.00 1.04 0.56 54 1012.7
20240418131025 55 345 3.5 8.7 0.00 1.04 0.56 54 1012.6
20240418130524 55 50 4.3 8.7 0.00 1.04 0.56 53 1012.4
20240418130030 56 11 3.5 7.0 0.00 1.04 0.56 53 1012.5
20240418125524 56 30 1.7 7.0 0.01 1.04 0.56 54 1012.4
20240418125023 56 22 2.6 7.0 0.06 1.04 0.56 54 1012.3
20240418124528 56 40 3.5 7.0 0.08 1.04 0.56 54 1012.2
20240418124026 56 321 2.6 8.7 0.08 1.04 0.56 54 1012.1
20240418123527 56 341 4.3 8.7 0.09 1.04 0.56 54 1012.1
20240418123029 56 47 4.3 8.7 0.09 1.04 0.56 54 1012.1
20240418122529 56 53 3.5 7.0 0.09 1.04 0.56 54 1012.1
20240418122023 56 339 1.7 7.0 0.10 1.04 0.56 54 1012.3
20240418121532 56 70 3.5 7.8 0.14 1.04 0.56 54 1012.1
20240418121023 56 326 3.5 7.8 0.15 1.04 0.56 54 1012.2
20240418120525 56 349 0.9 4.3 0.16 1.04 0.56 54 1012.2
20240418120029 56 34 0.9 5.2 0.17 1.04 0.56 54 1011.7
20240418115525 56 338 1.7 9.6 0.15 1.02 0.54 54 1011.5
20240418115025 56 63 2.6 9.6 0.10 0.97 0.49 54 1011.1
20240418114528 56 42 4.3 10.4 0.09 0.96 0.48 54 1010.9
20240418114024 56 56 4.3 10.4 0.08 0.95 0.47 55 1011.0
20240418113525 56 354 3.5 9.6 0.08 0.95 0.47 55 1011.0
20240418113031 56 23 5.2 12.2 0.08 0.95 0.47 54 1011.3
20240418112527 57 8 3.5 14.8 0.08 0.95 0.47 56 1011.0
20240418112024 57 72 6.1 14.8 0.06 0.93 0.45 56 1011.0
20240418111551 57 293 4.3 11.3 0.02 0.89 0.41 56 1011.7
20240418111025 58 22 0.0 4.3 0.02 0.89 0.41 57 1010.1
20240418110524 58 113 0.9 6.1 0.00 0.87 0.39 58 1009.9
20240418110046 58 34 2.6 6.1 0.00 0.87 0.39 59 1010.1
20240418105526 58 33 2.6 6.1 0.00 0.87 0.39 59 1010.4
20240418105026 58 17 3.5 6.1 0.00 0.87 0.39 59 1010.2
20240418104531 58 6 1.7 6.1 0.00 0.87 0.39 59 1009.9
20240418104027 58 58 0.9 6.1 0.00 0.87 0.39 59 1009.8
20240418103524 58 51 3.5 10.4 0.00 0.87 0.39 59 1009.8
20240418103027 59 10 3.5 10.4 0.00 0.87 0.39 58 1010.2
20240418102526 59 4 4.3 8.7 0.00 0.87 0.39 57 1010.3
20240418102028 60 345 1.7 5.2 0.00 0.87 0.39 56 1010.1
20240418101530 59 1 0.9 5.2 0.00 0.87 0.39 56 1009.8
20240418101024 59 129 1.7 5.2 0.00 0.87 0.39 56 1009.4
20240418100618 59 102 1.7 4.3 0.00 0.87 0.39 57 1009.3
20240418100028 59 77 1.7 5.2 0.00 0.87 0.39 58 1009.3
20240418095526 58 115 0.9 5.2 0.00 0.87 0.39 58 1009.1
20240418095023 58 87 0.9 8.7 0.00 0.87 0.39 58 1009.3
20240418094527 58 121 2.6 8.7 0.00 0.87 0.39 58 1009.3
20240418094024 58 60 1.7 7.0 0.00 0.87 0.39 58 1009.2
20240418093525 58 22 2.6 7.0 0.00 0.87 0.39 58 1009.4
20240418093029 58 72 1.7 9.6 0.00 0.87 0.39 58 1009.4
20240418092524 58 165 2.6 9.6 0.00 0.87 0.39 58 1009.4
20240418092022 58 85 1.7 8.7 0.00 0.87 0.39 58 1009.4
20240418091530 58 53 1.7 8.7 0.00 0.87 0.39 58 1009.7
20240418091023 58 75 2.6 7.0 0.00 0.87 0.39 58 1009.9
20240418090524 58 52 2.6 7.0 0.00 0.87 0.39 57 1010.3
20240418090040 59 95 2.6 6.1 0.00 0.87 0.39 57 1010.4
20240418085525 59 87 1.7 10.4 0.00 0.87 0.39 56 1010.6
20240418085024 59 41 3.5 10.4 0.00 0.87 0.39 56 1010.6
20240418084536 59 30 3.5 7.0 0.00 0.87 0.39 55 1010.8
20240418084025 59 311 2.6 5.2 0.00 0.87 0.39 55 1010.7
20240418083524 60 58 1.7 5.2 0.00 0.87 0.39 55 1010.7
20240418083030 59 24 0.0 7.8 0.00 0.87 0.39 55 1010.5
20240418082524 59 46 1.7 8.7 0.00 0.87 0.39 54 1010.7
20240418082027 59 25 2.6 8.7 0.00 0.87 0.39 54 1010.9
20240418081527 59 46 4.3 15.6 0.00 0.87 0.39 54 1011.2
20240418081024 59 24 5.2 15.6 0.00 0.87 0.39 55 1011.1
20240418080523 58 34 2.6 13.0 0.00 0.87 0.39 55 1011.5
20240418080026 58 62 6.1 13.0 0.00 0.87 0.39 56 1011.8
20240418075527 58 307 0.9 5.2 0.00 0.87 0.39 55 1011.1
20240418075026 58 64 1.7 5.2 0.00 0.87 0.39 55 1009.3
20240418074538 58 141 0.9 7.8 0.00 0.87 0.39 55 1009.3
20240418074026 58 78 2.6 7.8 0.00 0.87 0.39 55 1009.7
20240418073525 58 75 1.7 7.8 0.00 0.87 0.39 55 1009.9
20240418073026 58 328 0.9 8.7 0.01 0.87 0.39 56 1009.9
20240418072527 58 63 3.5 8.7 0.03 0.87 0.39 56 1009.9
20240418072026 58 0 1.7 7.8 0.03 0.87 0.39 57 1010.2
20240418071531 58 47 1.7 7.8 0.06 0.87 0.39 58 1010.0
20240418071027 58 94 2.6 7.8 0.22 0.87 0.39 58 1009.8
20240418070525 58 49 1.7 7.0 0.33 0.87 0.39 58 1010.5
20240418070032 58 41 2.6 7.0 0.37 0.87 0.39 57 1010.2
20240418065523 58 34 1.7 7.0 0.37 0.87 0.39 57 1010.2
20240418065025 58 28 2.6 7.0 0.37 0.87 0.39 56 1010.4
20240418064534 58 0 2.6 6.1 0.37 0.87 0.39 57 1010.4
20240418064024 58 75 1.7 6.1 0.37 0.87 0.39 58 1010.4
20240418063524 58 336 1.7 4.3 0.37 0.87 0.39 59 1010.9
20240418063038 58 26 0.0 9.6 0.36 0.86 0.38 60 1011.2
20240418062521 58 63 0.9 9.6 0.34 0.84 0.36 61 1011.7
20240418062023 58 40 3.5 9.6 0.35 0.84 0.36 61 1011.2
20240418061537 59 110 3.5 8.7 0.31 0.80 0.32 60 1012.0
20240418061021 60 314 2.6 16.5 0.16 0.65 0.17 60 1013.1
20240418060524 62 330 3.5 16.5 0.04 0.52 0.05 58 1013.1
20240418060024 63 283 1.7 6.1 0.01 0.50 0.02 53 1013.3
20240418055525 63 329 0.0 3.5 0.07 0.50 0.02 50 1011.6
20240418055024 63 72 1.7 7.8 0.15 0.50 0.02 51 1011.2
20240418054524 63 0 2.6 7.8 0.24 0.50 0.02 51 1010.6
20240418054026 62 63 1.7 9.6 0.33 0.50 0.02 52 1010.7
20240418053523 62 102 3.5 23.5 0.39 0.50 0.02 53 1011.1
20240418053026 61 350 5.2 23.5 0.50 0.50 0.02 55 1012.1
20240418052523 59 326 7.0 18.2 0.50 0.50 0.02 58 1012.0
20240418052023 59 284 2.6 9.6 0.49 0.49 0.01 59 1011.9
20240418051528 59 91 2.6 9.6 0.49 0.49 0.01 60 1010.5
20240418051024 59 55 3.5 9.6 0.49 0.49 0.01 59 1010.4
20240418050521 59 356 2.6 7.0 0.49 0.49 0.01 60 1011.1
20240418050033 58 58 0.9 4.3 0.48 0.48 0.00 61 1011.5
20240418045520 59 54 2.6 4.3 0.42 0.42 0.42 60 1011.7
20240418045023 60 20 1.7 8.7 0.34 0.34 0.34 59 1012.2
20240418044527 62 304 0.9 8.7 0.23 0.23 0.23 55 1012.3
20240418044023 64 359 4.3 8.7 0.17 0.17 0.17 52 1011.6
20240418043525 66 275 1.7 8.7 0.09 0.09 0.09 47 1012.5
20240418043026 68 105 1.7 9.6 0.00 0.00 0.00 39 1011.6
20240418042523 68 175 2.6 12.2 0.00 0.00 0.00 37 1011.4
20240418042023 68 125 3.5 12.2 0.00 0.00 0.00 36 1011.1
20240418041527 68 129 3.5 8.7 0.00 0.00 0.00 36 1011.1
20240418041024 68 49 2.6 6.1 0.00 0.00 0.00 36 1011.3
20240418040527 68 120 1.7 6.1 0.00 0.00 0.00 37 1011.3
20240418040040 68 0 0.9 5.2 0.00 0.00 0.00 36 1011.5
20240418035523 68 81 1.7 5.2 0.00 0.00 0.00 36 1011.7
20240418035022 68 102 0.9 5.2 0.00 0.00 0.00 36 1011.6
20240418034525 68 74 1.7 3.5 0.00 0.00 0.00 36 1011.6
20240418034024 68 49 0.9 5.2 0.00 0.00 0.00 36 1011.7
20240418033524 68 99 0.9 5.2 0.00 0.00 0.00 36 1011.8
20240418033026 68 98 0.9 2.6 0.00 0.00 0.00 35 1012.1
20240418032524 68 0 0.9 3.5 0.00 0.00 0.00 35 1012.2
20240418032023 69 39 0.9 3.5 0.00 0.00 0.00 35 1012.3
20240418031527 69 70 0.0 2.6 0.00 0.00 0.00 34 1012.5
20240418031020 70 33 0.0 4.3 0.00 0.00 0.00 34 1012.5
20240418030520 71 43 0.9 5.2 0.00 0.00 0.00 32 1012.6
20240418030028 71 69 0.0 5.2 0.00 0.00 0.00 31 1012.7
20240418025524 71 126 0.9 4.3 0.00 0.00 0.00 31 1012.7
20240418025022 71 115 0.0 5.2 0.00 0.00 0.00 31 1012.7
20240418024525 71 0 0.9 5.2 0.00 0.00 0.00 31 1012.8
20240418024023 71 81 1.7 5.2 0.00 0.00 0.00 31 1012.8
20240418023520 71 104 0.9 4.3 0.00 0.00 0.00 32 1012.9
20240418023027 71 61 0.0 4.3 0.00 0.00 0.00 32 1012.9
20240418022522 71 0 0.9 4.3 0.00 0.00 0.00 31 1012.9
20240418022024 71 82 0.9 4.3 0.00 0.00 0.00 31 1013.0
20240418021531 71 0 0.9 4.3 0.00 0.00 0.00 32 1013.0
20240418021024 70 91 0.0 2.6 0.00 0.00 0.00 33 1013.0
20240418020527 70 0 0.0 2.6 0.00 0.00 0.00 33 1012.9
20240418020025 70 89 0.0 0.9 0.00 0.00 0.00 33 1012.9
20240418015524 70 0 0.0 0.9 0.00 0.00 0.00 33 1012.9
20240418015024 71 0 0.0 0.9 0.00 0.00 0.00 33 1012.9
20240418014539 71 37 0.0 0.9 0.00 0.00 0.00 32 1012.8
20240418014023 71 0 0.0 0.9 0.00 0.00 0.00 32 1012.7
20240418013526 71 0 0.0 0.9 0.00 0.00 0.00 31 1012.6
20240418013028 72 0 0.0 0.9 0.00 0.00 0.00 31 1012.5
20240418012523 72 82 0.0 0.9 0.00 0.00 0.00 31 1012.4
20240418012025 72 0 0.0 0.9 0.00 0.00 0.00 31 1012.4
20240418011527 73 0 0.0 0.9 0.00 0.00 0.00 30 1012.3
20240418011023 73 103 0.0 0.9 0.00 0.00 0.00 28 1012.3
20240418010520 74 0 0.0 0.9 0.00 0.00 0.00 28 1012.3
20240418010023 74 0 0.0 1.7 0.00 0.00 0.00 27 1012.2
20240418005523 75 0 0.0 1.7 0.00 0.00 0.00 27 1012.1
20240418005024 76 0 0.0 1.7 0.00 0.00 0.00 26 1012.1
20240418004528 76 0 0.0 2.6 0.00 0.00 0.00 25 1012.1
20240418004024 77 0 0.0 3.5 0.00 0.00 0.00 24 1012.0
20240418003523 77 102 0.9 3.5 0.00 0.00 0.00 24 1012.0
20240418003029 77 98 0.9 3.5 0.00 0.00 0.00 23 1012.0
20240418002523 78 84 1.7 5.2 0.00 0.00 0.00 23 1011.9
20240418002023 78 105 1.7 5.2 0.00 0.00 0.00 23 1012.0
20240418001527 79 117 0.9 4.3 0.00 0.00 0.00 22 1011.9
20240418001026 79 201 0.9 4.3 0.00 0.00 0.00 23 1012.0
20240418000523 79 0 0.9 5.2 0.00 0.00 0.00 22 1012.0
20240418000026 79 136 0.9 5.2 0.00 0.00 0.00 22 1012.1
20240417235528 79 219 1.7 5.2 0.00 0.00 0.00 22 1012.1
20240417235024 79 119 0.9 5.2 0.00 0.00 0.00 21 1012.1
20240417234523 79 121 0.0 6.1 0.00 0.00 0.00 22 1012.1
20240417234025 80 115 2.6 6.1 0.00 0.00 0.00 21 1012.0
20240417233523 80 97 0.9 4.3 0.00 0.00 0.00 21 1012.0
20240417233023 80 96 0.0 4.3 0.00 0.00 0.00 22 1012.2
20240417232523 79 342 1.7 4.3 0.00 0.00 0.00 22 1012.2
20240417232021 79 48 0.9 2.6 0.00 0.00 0.00 21 1012.2
20240417231530 80 100 0.0 3.5 0.00 0.00 0.00 22 1012.2
20240417231026 79 146 0.9 3.5 0.00 0.00 0.00 22 1012.2
20240417230523 80 56 0.9 2.6 0.00 0.00 0.00 22 1012.2
20240417230028 80 94 0.9 3.5 0.00 0.00 0.00 21 1012.2
20240417225525 80 210 1.7 3.5 0.00 0.00 0.00 20 1012.4
20240417225022 81 176 0.9 3.5 0.00 0.00 0.00 20 1012.3
20240417224525 80 280 0.9 3.5 0.00 0.00 0.00 21 1012.5
20240417224027 79 211 0.9 5.2 0.00 0.00 0.00 22 1012.5
20240417223523 80 101 1.7 5.2 0.00 0.00 0.00 20 1012.5
20240417223023 81 102 2.6 4.3 0.00 0.00 0.00 20 1012.6
20240417222523 81 111 0.0 4.3 0.00 0.00 0.00 20 1012.5
20240417222025 80 221 0.0 6.1 0.00 0.00 0.00 21 1012.6
20240417221526 79 293 2.6 6.1 0.00 0.00 0.00 22 1012.5
20240417221023 80 0 1.7 6.1 0.00 0.00 0.00 22 1012.5
20240417220524 80 79 0.9 6.1 0.00 0.00 0.00 20 1012.5
20240417220025 80 129 0.9 6.1 0.00 0.00 0.00 20 1012.6
20240417215522 80 195 0.9 5.2 0.00 0.00 0.00 21 1012.7
20240417215023 80 301 2.6 6.1 0.00 0.00 0.00 21 1012.7
20240417214540 80 172 0.9 6.1 0.00 0.00 0.00 21 1012.8
20240417214025 80 315 3.5 6.1 0.00 0.00 0.00 20 1012.8
20240417213529 80 224 1.7 5.2 0.00 0.00 0.00 21 1012.7
20240417213033 80 185 0.9 3.5 0.00 0.00 0.00 21 1012.6
20240417212525 78 148 0.9 5.2 0.00 0.00 0.00 21 1012.7
20240417212027 79 318 1.7 7.0 0.00 0.00 0.00 20 1012.6
20240417211528 80 217 1.7 7.0 0.00 0.00 0.00 21 1012.7
20240417211025 80 124 0.9 4.3 0.00 0.00 0.00 20 1012.7
20240417210522 80 208 2.6 5.2 0.00 0.00 0.00 19 1012.8
20240417210029 80 0 1.7 5.2 0.00 0.00 0.00 20 1012.8
20240417205525 79 213 1.7 4.3 0.00 0.00 0.00 20 1012.8
20240417205025 78 205 1.7 4.3 0.00 0.00 0.00 21 1012.9
20240417204538 78 82 1.7 4.3 0.00 0.00 0.00 20 1013.0
20240417204025 78 123 2.6 7.0 0.00 0.00 0.00 20 1013.1
20240417203525 78 273 2.6 7.0 0.00 0.00 0.00 23 1013.3
20240417203028 78 358 2.6 6.1 0.00 0.00 0.00 22 1013.3
20240417202524 78 291 1.7 6.1 0.00 0.00 0.00 22 1013.4
20240417202028 77 169 0.9 7.8 0.00 0.00 0.00 20 1013.4
20240417201533 77 249 2.6 7.8 0.00 0.00 0.00 20 1013.4
20240417201025 77 6 2.6 7.8 0.00 0.00 0.00 19 1013.5
20240417200526 77 280 2.6 5.2 0.00 0.00 0.00 22 1013.5
20240417200030 77 27 2.6 5.2 0.00 0.00 0.00 21 1013.5
20240417195527 77 252 0.9 7.8 0.00 0.00 0.00 22 1013.6
20240417195025 76 47 1.7 7.8 0.00 0.00 0.00 22 1013.7
20240417194527 76 282 2.6 9.6 0.00 0.00 0.00 21 1013.8
20240417194028 76 299 3.5 9.6 0.00 0.00 0.00 22 1013.8
20240417193529 76 358 3.5 7.8 0.00 0.00 0.00 20 1013.9
20240417193032 76 337 2.6 7.0 0.00 0.00 0.00 21 1013.9
20240417192525 76 332 1.7 7.0 0.00 0.00 0.00 23 1014.0
20240417192026 76 66 2.6 7.0 0.00 0.00 0.00 22 1014.1
20240417191528 76 210 0.9 7.0 0.00 0.00 0.00 22 1014.1
20240417191031 75 297 3.5 7.0 0.00 0.00 0.00 23 1014.1
20240417190525 75 12 1.7 7.0 0.00 0.00 0.00 22 1014.2
20240417190031 75 331 1.7 7.0 0.00 0.00 0.00 24 1014.3
20240417185525 75 26 1.7 10.4 0.00 0.00 0.00 23 1014.2
20240417185025 75 248 2.6 10.4 0.00 0.00 0.00 24 1014.3
20240417184534 75 280 1.7 10.4 0.00 0.00 0.00 25 1014.4
20240417184026 74 341 1.7 7.8 0.00 0.00 0.00 26 1014.5
20240417183526 74 283 2.6 9.6 0.00 0.00 0.00 24 1014.6
20240417183034 74 221 4.3 9.6 0.00 0.00 0.00 22 1014.5
20240417182525 73 54 1.7 7.8 0.00 0.00 0.00 24 1014.5
20240417182034 73 283 2.6 7.8 0.00 0.00 0.00 26 1014.5
20240417181529 73 307 3.5 8.7 0.00 0.00 0.00 24 1014.6
20240417181025 73 294 3.5 8.7 0.00 0.00 0.00 27 1014.7
20240417180523 73 326 1.7 7.0 0.00 0.00 0.00 26 1014.7
20240417180049 73 23 2.6 7.0 0.00 0.00 0.00 27 1014.8
20240417175526 72 273 3.5 8.7 0.00 0.00 0.00 27 1014.7
20240417175028 72 269 3.5 8.7 0.00 0.00 0.00 27 1014.9
20240417174533 72 265 0.9 13.0 0.00 0.00 0.00 29 1014.8
20240417174027 71 268 6.1 13.0 0.00 0.00 0.00 27 1015.0
20240417173526 71 236 2.6 10.4 0.00 0.00 0.00 27 1014.9
20240417173040 71 295 3.5 12.2 0.00 0.00 0.00 28 1014.9
20240417172525 71 304 2.6 13.0 0.00 0.00 0.00 28 1015.0
20240417172025 71 278 6.1 13.0 0.00 0.00 0.00 27 1015.0
20240417171530 70 266 3.5 11.3 0.00 0.00 0.00 30 1015.1
20240417171025 71 319 3.5 10.4 0.00 0.00 0.00 30 1015.0
20240417170524 71 290 4.3 10.4 0.00 0.00 0.00 28 1015.0
20240417170042 70 288 3.5 9.6 0.00 0.00 0.00 31 1014.9
20240417165528 70 327 2.6 9.6 0.00 0.00 0.00 30 1015.1
20240417165026 70 337 3.5 7.8 0.00 0.00 0.00 32 1015.0
20240417164543 69 307 3.5 8.7 0.00 0.00 0.00 33 1015.1
20240417164025 69 243 3.5 8.7 0.00 0.00 0.00 33 1015.1
20240417163526 69 274 1.7 7.8 0.00 0.00 0.00 35 1015.1
20240417163041 69 252 3.5 6.1 0.00 0.00 0.00 34 1015.1